Location: Kalberh�ni
(46.4610°N, 7.2453°E)
Time: 21:47:12
(UTC+00:00)

USA 229 - Pass Details

Date: 01 November 2021
Orbit: 946 x 1266 km, 63.4° (Epoch: 25 November)

Event Time Altitude Azimuth Distance (km) Brightness Sun altitude
Rises 20:44:19 0° 304° (WNW) 3,810 7.3 -45.4°
Reaches altitude 10° 20:47:44 10° 321° (NW) 2,914 6.5 -45.9°
Enters shadow 20:50:28 18° 343° (NNW) 2,441 5.9 -46.3°
